| time (UTC) | temp F | wind direction | speed MPH | gust MPH | rain 1hr in | rain 24hr in | rain mn in | humidity % | barometer mb |
| 20260505200710 | 83 | 163 | 2.0 | 7.0 | 0.00 | 0.00 | 0.00 | 72 | 1008.5 |
| 20260505200205 | 84 | 153 | 2.0 | 7.0 | 0.00 | 0.00 | 0.00 | 71 | 1008.5 |
| 20260505195659 | 83 | 187 | 2.0 | 5.0 | 0.00 | 0.00 | 0.00 | 72 | 1008.5 |
| 20260505195153 | 83 | 180 | 2.0 | 5.0 | 0.00 | 0.00 | 0.00 | 72 | 1008.6 |
| 20260505194647 | 83 | 168 | 2.0 | 5.0 | 0.00 | 0.00 | 0.00 | 72 | 1008.6 |
| 20260505194140 | 84 | 177 | 2.0 | 7.0 | 0.00 | 0.00 | 0.00 | 71 | 1008.7 |
| 20260505193907 | 83 | 205 | 1.0 | 7.0 | 0.00 | 0.00 | 0.00 | 72 | 1008.8 |
| 20260505193359 | 83 | 206 | 2.0 | 8.0 | 0.00 | 0.00 | 0.00 | 73 | 1008.7 |
| 20260505192622 | 82 | 178 | 2.0 | 8.0 | 0.00 | 0.00 | 0.00 | 73 | 1008.8 |
| 20260505192116 | 82 | 301 | 2.0 | 8.0 | 0.00 | 0.00 | 0.00 | 73 | 1008.8 |
| 20260505191611 | 82 | 223 | 3.0 | 8.0 | 0.00 | 0.00 | 0.00 | 73 | 1008.9 |
| 20260505191105 | 82 | 233 | 3.0 | 11.0 | 0.00 | 0.00 | 0.00 | 74 | 1009.0 |
| 20260505190053 | 81 | 202 | 1.0 | 6.0 | 0.00 | 0.00 | 0.00 | 75 | 1009.1 |
| 20260505185817 | 81 | 219 | 1.0 | 8.0 | 0.00 | 0.00 | 0.00 | 74 | 1009.2 |
| 20260505185041 | 81 | 209 | 1.0 | 8.0 | 0.00 | 0.00 | 0.00 | 75 | 1009.5 |
| 20260505184535 | 81 | 244 | 1.0 | 7.0 | 0.00 | 0.00 | 0.00 | 76 | 1009.5 |
| 20260505184029 | 81 | 244 | 1.0 | 7.0 | 0.00 | 0.00 | 0.00 | 76 | 1009.6 |
| 20260505183524 | 80 | 205 | 1.0 | 6.0 | 0.00 | 0.00 | 0.00 | 77 | 1009.7 |
| 20260505183024 | 80 | 259 | 2.0 | 6.0 | 0.00 | 0.00 | 0.00 | 76 | 1009.7 |
| 20260505182522 | 80 | 194 | 2.0 | 6.0 | 0.00 | 0.00 | 0.00 | 77 | 1009.9 |
| 20260505182252 | 80 | 242 | 2.0 | 6.0 | 0.00 | 0.00 | 0.00 | 77 | 1009.9 |
| 20260505181522 | 80 | 223 | 2.0 | 8.0 | 0.00 | 0.00 | 0.00 | 77 | 1010.0 |
| 20260505181022 | 79 | 280 | 2.0 | 8.0 | 0.00 | 0.00 | 0.00 | 79 | 1010.0 |
| 20260505180522 | 79 | 160 | 2.0 | 9.0 | 0.00 | 0.00 | 0.00 | 79 | 1010.0 |
| 20260505180020 | 78 | 307 | 3.0 | 10.0 | 0.00 | 0.00 | 0.00 | 80 | 1010.0 |
| 20260505175750 | 78 | 167 | 2.0 | 10.0 | 0.00 | 0.00 | 0.00 | 80 | 1010.0 |
| 20260505175020 | 78 | 181 | 1.0 | 5.0 | 0.00 | 0.00 | 0.00 | 81 | 1010.0 |
| 20260505174518 | 78 | 231 | 1.0 | 4.0 | 0.00 | 0.00 | 0.00 | 81 | 1010.0 |
| 20260505174018 | 77 | 237 | 1.0 | 4.0 | 0.00 | 0.00 | 0.00 | 81 | 1010.0 |
| 20260505173518 | 77 | 236 | 2.0 | 6.0 | 0.00 | 0.00 | 0.00 | 81 | 1010.0 |
| 20260505173248 | 77 | 241 | 2.0 | 7.0 | 0.00 | 0.00 | 0.00 | 81 | 1010.1 |
| 20260505172514 | 76 | 253 | 2.0 | 7.0 | 0.00 | 0.00 | 0.00 | 83 | 1010.0 |
| 20260505172013 | 76 | 242 | 2.0 | 7.0 | 0.00 | 0.00 | 0.00 | 83 | 1010.1 |
| 20260505171514 | 76 | 242 | 1.0 | 7.0 | 0.00 | 0.00 | 0.00 | 83 | 1010.1 |
| 20260505171014 | 76 | 230 | 1.0 | 7.0 | 0.00 | 0.00 | 0.00 | 85 | 1010.2 |
| 20260505170514 | 75 | 240 | 1.0 | 7.0 | 0.00 | 0.00 | 0.00 | 85 | 1010.2 |
| 20260505170012 | 75 | 292 | 1.0 | 7.0 | 0.00 | 0.00 | 0.00 | 86 | 1010.2 |
| 20260505165511 | 74 | 172 | 2.0 | 7.0 | 0.00 | 0.00 | 0.00 | 87 | 1010.1 |
| 20260505165245 | 74 | 196 | 2.0 | 7.0 | 0.00 | 0.00 | 0.00 | 87 | 1010.2 |
| 20260505164746 | 74 | 194 | 1.0 | 7.0 | 0.00 | 0.00 | 0.00 | 88 | 1010.1 |
| 20260505164243 | 73 | 212 | 1.0 | 6.0 | 0.00 | 0.00 | 0.00 | 89 | 1010.1 |
| 20260505163511 | 73 | 212 | 1.0 | 6.0 | 0.00 | 0.00 | 0.00 | 90 | 1010.1 |
| 20260505163243 | 72 | 173 | 1.0 | 5.0 | 0.00 | 0.00 | 0.00 | 90 | 1010.2 |
| 20260505162511 | 72 | 171 | 2.0 | 5.0 | 0.00 | 0.00 | 0.00 | 91 | 1010.1 |
| 20260505162008 | 72 | 271 | 1.0 | 4.0 | 0.00 | 0.00 | 0.00 | 91 | 1010.3 |
| 20260505161508 | 71 | 277 | 1.0 | 5.0 | 0.00 | 0.00 | 0.00 | 92 | 1010.3 |
| 20260505161007 | 71 | 280 | 2.0 | 5.0 | 0.00 | 0.00 | 0.00 | 92 | 1010.3 |
| 20260505160507 | 71 | 227 | 1.0 | 5.0 | 0.00 | 0.00 | 0.00 | 92 | 1010.3 |
| 20260505152955 | 70 | 269 | 1.0 | 7.0 | 0.00 | 0.00 | 0.00 | 93 | 1010.3 |
| 20260505152449 | 70 | 271 | 1.0 | 7.0 | 0.00 | 0.00 | 0.00 | 93 | 1010.3 |
| 20260505151943 | 70 | 232 | 1.0 | 8.0 | 0.00 | 0.00 | 0.00 | 93 | 1010.3 |
| 20260505151437 | 70 | 259 | 1.0 | 8.0 | 0.00 | 0.00 | 0.00 | 93 | 1010.3 |
| 20260505150931 | 70 | 219 | 1.0 | 6.0 | 0.00 | 0.00 | 0.00 | 93 | 1010.2 |
| 20260505150656 | 70 | 214 | 1.0 | 6.0 | 0.00 | 0.00 | 0.00 | 93 | 1010.1 |
| 20260505140313 | 69 | 160 | 2.0 | 7.0 | 0.00 | 0.00 | 0.00 | 93 | 1010.1 |
| 20260505130213 | 68 | 142 | 2.0 | 8.0 | 0.00 | 0.00 | 0.00 | 92 | 1010.0 |
| 20260505124944 | 68 | 202 | 1.0 | 11.0 | 0.00 | 0.00 | 0.00 | 92 | 1009.9 |
| 20260505124442 | 68 | 242 | 2.0 | 11.0 | 0.00 | 0.00 | 0.00 | 92 | 1009.9 |
| 20260505123711 | 68 | 234 | 2.0 | 9.0 | 0.00 | 0.00 | 0.00 | 92 | 1009.8 |
| 20260505123442 | 68 | 236 | 2.0 | 9.0 | 0.00 | 0.00 | 0.00 | 92 | 1009.7 |
| 20260505122709 | 68 | 146 | 2.0 | 9.0 | 0.00 | 0.00 | 0.00 | 92 | 1009.6 |
| 20260505122209 | 68 | 200 | 2.0 | 9.0 | 0.00 | 0.00 | 0.00 | 92 | 1009.3 |
| 20260505121709 | 68 | 139 | 1.0 | 7.0 | 0.00 | 0.00 | 0.00 | 92 | 1009.3 |
| 20260505121439 | 68 | 224 | 2.0 | 11.0 | 0.00 | 0.00 | 0.00 | 92 | 1009.2 |
| 20260505120941 | 68 | 211 | 2.0 | 11.0 | 0.00 | 0.00 | 0.00 | 91 | 1009.2 |
| 20260505120209 | 68 | 185 | 1.0 | 6.0 | 0.00 | 0.00 | 0.00 | 91 | 1009.1 |
| 20260505115708 | 68 | 184 | 2.0 | 9.0 | 0.00 | 0.00 | 0.00 | 91 | 1009.1 |
| 20260505115207 | 68 | 227 | 2.0 | 9.0 | 0.00 | 0.00 | 0.00 | 91 | 1009.0 |
| 20260505114707 | 68 | 223 | 1.0 | 6.0 | 0.00 | 0.00 | 0.00 | 91 | 1009.0 |
| 20260505114201 | 68 | 243 | 1.0 | 5.0 | 0.00 | 0.00 | 0.00 | 91 | 1009.0 |
| 20260505113655 | 68 | 209 | 2.0 | 7.0 | 0.00 | 0.00 | 0.00 | 91 | 1009.0 |
| 20260505113148 | 68 | 209 | 1.0 | 7.0 | 0.00 | 0.00 | 0.00 | 91 | 1009.0 |
| 20260505112643 | 68 | 196 | 1.0 | 6.0 | 0.00 | 0.00 | 0.00 | 91 | 1008.9 |
| 20260505112137 | 68 | 196 | 2.0 | 6.0 | 0.00 | 0.00 | 0.00 | 91 | 1008.9 |
| 20260505111631 | 68 | 199 | 1.0 | 5.0 | 0.00 | 0.00 | 0.00 | 91 | 1008.9 |
| 20260505111125 | 68 | 206 | 1.0 | 7.0 | 0.00 | 0.00 | 0.00 | 91 | 1009.0 |
| 20260505110619 | 68 | 211 | 1.0 | 7.0 | 0.00 | 0.00 | 0.00 | 91 | 1009.0 |
| 20260505110345 | 68 | 148 | 1.0 | 7.0 | 0.00 | 0.00 | 0.00 | 91 | 1009.0 |
| 20260505102042 | 68 | 200 | 2.0 | 7.0 | 0.00 | 0.00 | 0.00 | 91 | 1009.0 |
| 20260505101543 | 68 | 163 | 2.0 | 7.0 | 0.00 | 0.00 | 0.00 | 91 | 1009.0 |
| 20260505101043 | 68 | 213 | 1.0 | 7.0 | 0.00 | 0.00 | 0.00 | 91 | 1009.0 |
| 20260505100559 | 68 | 192 | 1.0 | 8.0 | 0.00 | 0.00 | 0.00 | 90 | 1009.1 |
| 20260505100043 | 68 | 209 | 2.0 | 8.0 | 0.00 | 0.00 | 0.00 | 91 | 1009.2 |
| 20260505095041 | 68 | 260 | 1.0 | 8.0 | 0.00 | 0.00 | 0.00 | 91 | 1009.1 |
| 20260505094541 | 68 | 222 | 1.0 | 6.0 | 0.00 | 0.00 | 0.00 | 90 | 1009.1 |
| 20260505094041 | 68 | 234 | 2.0 | 8.0 | 0.00 | 0.00 | 0.00 | 90 | 1009.2 |
| 20260505093541 | 69 | 232 | 2.0 | 8.0 | 0.00 | 0.00 | 0.00 | 90 | 1009.2 |
| 20260505093042 | 69 | 206 | 1.0 | 6.0 | 0.00 | 0.00 | 0.00 | 90 | 1009.3 |
| 20260505092541 | 69 | 257 | 1.0 | 10.0 | 0.00 | 0.00 | 0.00 | 90 | 1009.3 |
| 20260505092041 | 69 | 148 | 1.0 | 10.0 | 0.00 | 0.00 | 0.00 | 90 | 1009.5 |
| 20260505091540 | 69 | 260 | 2.0 | 6.0 | 0.00 | 0.00 | 0.00 | 90 | 1009.5 |
| 20260505091041 | 69 | 188 | 2.0 | 9.0 | 0.00 | 0.00 | 0.00 | 90 | 1009.3 |
| 20260505090541 | 69 | 169 | 2.0 | 9.0 | 0.00 | 0.00 | 0.00 | 90 | 1009.3 |
| 20260505090040 | 69 | 200 | 2.0 | 8.0 | 0.00 | 0.00 | 0.00 | 90 | 1009.3 |
| 20260505085540 | 69 | 205 | 2.0 | 7.0 | 0.00 | 0.00 | 0.00 | 90 | 1009.3 |
| 20260505085041 | 69 | 191 | 1.0 | 5.0 | 0.00 | 0.00 | 0.00 | 90 | 1009.3 |
| 20260505084540 | 69 | 188 | 2.0 | 5.0 | 0.00 | 0.00 | 0.00 | 90 | 1009.3 |
| 20260505084040 | 69 | 197 | 2.0 | 7.0 | 0.00 | 0.00 | 0.00 | 90 | 1009.5 |
| 20260505083541 | 69 | 160 | 2.0 | 10.0 | 0.00 | 0.00 | 0.00 | 89 | 1009.3 |
| 20260505082538 | 69 | 136 | 3.0 | 7.0 | 0.00 | 0.00 | 0.00 | 89 | 1009.5 |
| 20260505082038 | 69 | 163 | 3.0 | 8.0 | 0.00 | 0.00 | 0.00 | 89 | 1009.7 |
| 20260505081539 | 69 | 210 | 2.0 | 8.0 | 0.00 | 0.00 | 0.00 | 89 | 1009.7 |
| 20260505081307 | 69 | 186 | 2.0 | 8.0 | 0.00 | 0.00 | 0.00 | 89 | 1009.9 |
| 20260505080536 | 69 | 248 | 3.0 | 11.0 | 0.00 | 0.00 | 0.00 | 89 | 1010.0 |
| 20260505080036 | 69 | 150 | 3.0 | 11.0 | 0.00 | 0.00 | 0.00 | 89 | 1009.9 |
| 20260505075537 | 69 | 252 | 2.0 | 8.0 | 0.00 | 0.00 | 0.00 | 89 | 1009.9 |
| 20260505075036 | 69 | 171 | 2.0 | 8.0 | 0.00 | 0.00 | 0.00 | 89 | 1010.1 |
| 20260505074806 | 69 | 240 | 2.0 | 8.0 | 0.00 | 0.00 | 0.00 | 89 | 1010.2 |
| 20260505074034 | 69 | 226 | 1.0 | 6.0 | 0.00 | 0.00 | 0.00 | 89 | 1010.2 |
| 20260505073528 | 69 | 235 | 2.0 | 7.0 | 0.00 | 0.00 | 0.00 | 89 | 1010.1 |
| 20260505072516 | 69 | 153 | 2.0 | 9.0 | 0.00 | 0.00 | 0.00 | 89 | 1010.5 |
| 20260505072011 | 69 | 171 | 2.0 | 9.0 | 0.00 | 0.00 | 0.00 | 88 | 1010.5 |
| 20260505071504 | 69 | 229 | 2.0 | 8.0 | 0.00 | 0.00 | 0.00 | 88 | 1010.5 |
| 20260505071228 | 69 | 229 | 2.0 | 10.0 | 0.00 | 0.00 | 0.00 | 88 | 1010.6 |
| 20260505070452 | 69 | 206 | 1.0 | 10.0 | 0.00 | 0.00 | 0.00 | 88 | 1010.7 |
| 20260505065946 | 69 | 227 | 2.0 | 5.0 | 0.00 | 0.00 | 0.00 | 88 | 1010.8 |
| 20260505065440 | 70 | 273 | 2.0 | 9.0 | 0.00 | 0.00 | 0.00 | 88 | 1010.9 |
| 20260505065206 | 70 | 143 | 3.0 | 11.0 | 0.00 | 0.00 | 0.00 | 88 | 1010.7 |
| 20260505064427 | 70 | 211 | 2.0 | 10.0 | 0.00 | 0.00 | 0.00 | 88 | 1010.8 |
| 20260505063921 | 70 | 124 | 2.0 | 10.0 | 0.00 | 0.00 | 0.00 | 87 | 1010.9 |
| 20260505063416 | 70 | 159 | 2.0 | 8.0 | 0.00 | 0.00 | 0.00 | 87 | 1011.0 |
| 20260505062910 | 70 | 134 | 2.0 | 7.0 | 0.00 | 0.00 | 0.00 | 87 | 1011.0 |
| 20260505062404 | 70 | 177 | 2.0 | 9.0 | 0.00 | 0.00 | 0.00 | 87 | 1010.9 |
| 20260505061858 | 70 | 196 | 2.0 | 9.0 | 0.00 | 0.00 | 0.00 | 87 | 1011.0 |
| 20260505061352 | 70 | 250 | 2.0 | 8.0 | 0.00 | 0.00 | 0.00 | 87 | 1010.9 |
| 20260505060845 | 70 | 238 | 2.0 | 7.0 | 0.00 | 0.00 | 0.00 | 87 | 1011.1 |
| 20260505060611 | 70 | 167 | 3.0 | 8.0 | 0.00 | 0.00 | 0.00 | 86 | 1011.1 |
| 20260505060106 | 70 | 159 | 3.0 | 11.0 | 0.00 | 0.00 | 0.00 | 86 | 1011.2 |
| 20260505055600 | 70 | 169 | 2.0 | 11.0 | 0.00 | 0.00 | 0.00 | 86 | 1011.3 |
| 20260505054822 | 71 | 217 | 3.0 | 9.0 | 0.00 | 0.00 | 0.00 | 86 | 1011.3 |
| 20260505054317 | 71 | 222 | 3.0 | 9.0 | 0.00 | 0.00 | 0.00 | 86 | 1011.4 |
| 20260505053812 | 71 | 205 | 3.0 | 7.0 | 0.00 | 0.00 | 0.00 | 86 | 1011.5 |
| 20260505053304 | 71 | 159 | 3.0 | 13.0 | 0.00 | 0.00 | 0.00 | 86 | 1011.4 |
| 20260505052758 | 71 | 175 | 3.0 | 13.0 | 0.00 | 0.00 | 0.00 | 86 | 1011.3 |
| 20260505052252 | 71 | 202 | 3.0 | 8.0 | 0.00 | 0.00 | 0.00 | 86 | 1011.4 |
| 20260505051746 | 71 | 159 | 2.0 | 9.0 | 0.00 | 0.00 | 0.00 | 86 | 1011.2 |
| 20260505051239 | 71 | 169 | 2.0 | 9.0 | 0.00 | 0.00 | 0.00 | 85 | 1011.2 |
| 20260505050733 | 71 | 119 | 3.0 | 10.0 | 0.00 | 0.00 | 0.00 | 85 | 1011.3 |
| 20260505050458 | 71 | 189 | 3.0 | 10.0 | 0.00 | 0.00 | 0.00 | 85 | 1011.3 |
| 20260505041718 | 72 | 222 | 2.0 | 6.0 | 0.00 | 0.00 | 0.00 | 82 | 1011.3 |
| 20260505041216 | 72 | 175 | 2.0 | 8.0 | 0.00 | 0.00 | 0.00 | 82 | 1011.3 |
| 20260505040713 | 73 | 195 | 2.0 | 8.0 | 0.00 | 0.00 | 0.00 | 81 | 1011.3 |
| 20260505040213 | 73 | 163 | 2.0 | 8.0 | 0.00 | 0.00 | 0.00 | 81 | 1011.2 |
| 20260505035945 | 73 | 196 | 2.0 | 8.0 | 0.00 | 0.00 | 0.00 | 81 | 1011.2 |
| 20260505035213 | 73 | 213 | 2.0 | 7.0 | 0.00 | 0.00 | 0.00 | 80 | 1011.2 |
| 20260505034714 | 73 | 156 | 2.0 | 12.0 | 0.00 | 0.00 | 0.00 | 79 | 1011.4 |
| 20260505034214 | 73 | 150 | 3.0 | 12.0 | 0.00 | 0.00 | 0.00 | 79 | 1011.2 |
| 20260505033945 | 73 | 150 | 2.0 | 9.0 | 0.00 | 0.00 | 0.00 | 79 | 1011.1 |
| 20260505033212 | 73 | 157 | 2.0 | 9.0 | 0.00 | 0.00 | 0.00 | 78 | 1011.1 |
| 20260505032941 | 73 | 226 | 2.0 | 9.0 | 0.00 | 0.00 | 0.00 | 78 | 1010.9 |
| 20260505032212 | 73 | 150 | 2.0 | 9.0 | 0.00 | 0.00 | 0.00 | 78 | 1011.0 |
| 20260505031706 | 73 | 177 | 2.0 | 8.0 | 0.00 | 0.00 | 0.00 | 77 | 1011.0 |
| 20260505031159 | 73 | 197 | 1.0 | 5.0 | 0.00 | 0.00 | 0.00 | 77 | 1010.9 |
| 20260505030653 | 74 | 200 | 1.0 | 5.0 | 0.00 | 0.00 | 0.00 | 77 | 1010.9 |
| 20260505030147 | 74 | 199 | 1.0 | 5.0 | 0.00 | 0.00 | 0.00 | 76 | 1011.1 |
| 20260505025641 | 74 | 192 | 1.0 | 4.0 | 0.00 | 0.00 | 0.00 | 76 | 1011.0 |
| 20260505025407 | 74 | 192 | 1.0 | 4.0 | 0.00 | 0.00 | 0.00 | 76 | 1011.1 |
| 20260505024629 | 74 | 189 | 1.0 | 4.0 | 0.00 | 0.00 | 0.00 | 75 | 1011.1 |
| 20260505024123 | 74 | 192 | 1.0 | 3.0 | 0.00 | 0.00 | 0.00 | 75 | 1011.0 |
| 20260505023617 | 74 | 192 | 1.0 | 5.0 | 0.00 | 0.00 | 0.00 | 75 | 1011.1 |
| 20260505023112 | 74 | 192 | 1.0 | 5.0 | 0.00 | 0.00 | 0.00 | 75 | 1011.1 |
| 20260505022606 | 74 | 191 | 1.0 | 4.0 | 0.00 | 0.00 | 0.00 | 74 | 1011.0 |
| 20260505022100 | 74 | 191 | 0.0 | 4.0 | 0.00 | 0.00 | 0.00 | 74 | 1010.9 |
| 20260505021553 | 74 | 190 | 0.0 | 4.0 | 0.00 | 0.00 | 0.00 | 74 | 1010.9 |
| 20260505021047 | 75 | 190 | 0.0 | 1.0 | 0.00 | 0.00 | 0.00 | 74 | 1010.9 |
| 20260505020541 | 75 | 190 | 0.0 | 3.0 | 0.00 | 0.00 | 0.00 | 73 | 1010.9 |
| 20260505020036 | 75 | 190 | 1.0 | 4.0 | 0.00 | 0.00 | 0.00 | 73 | 1010.7 |
| 20260505015530 | 75 | 190 | 1.0 | 4.0 | 0.00 | 0.00 | 0.00 | 72 | 1010.6 |
| 20260505015024 | 75 | 190 | 1.0 | 5.0 | 0.00 | 0.00 | 0.00 | 72 | 1010.7 |
| 20260505014517 | 75 | 190 | 1.0 | 5.0 | 0.00 | 0.00 | 0.00 | 72 | 1010.7 |
| 20260505014011 | 76 | 189 | 1.0 | 8.0 | 0.00 | 0.00 | 0.00 | 72 | 1010.6 |
| 20260505013736 | 76 | 187 | 2.0 | 8.0 | 0.00 | 0.00 | 0.00 | 71 | 1010.6 |
| 20260505013231 | 76 | 225 | 2.0 | 5.0 | 0.00 | 0.00 | 0.00 | 71 | 1010.5 |
| 20260505012725 | 76 | 161 | 1.0 | 5.0 | 0.00 | 0.00 | 0.00 | 71 | 1010.6 |
| 20260505012219 | 76 | 157 | 1.0 | 6.0 | 0.00 | 0.00 | 0.00 | 71 | 1010.6 |
| 20260505011714 | 77 | 158 | 2.0 | 6.0 | 0.00 | 0.00 | 0.00 | 70 | 1010.5 |
| 20260505010936 | 77 | 232 | 1.0 | 6.0 | 0.00 | 0.00 | 0.00 | 70 | 1010.5 |
| 20260505010429 | 77 | 192 | 1.0 | 5.0 | 0.00 | 0.00 | 0.00 | 69 | 1010.4 |
| 20260505005923 | 77 | 202 | 2.0 | 10.0 | 0.00 | 0.00 | 0.00 | 69 | 1010.5 |
| 20260505005649 | 78 | 193 | 2.0 | 10.0 | 0.00 | 0.00 | 0.00 | 69 | 1010.6 |
| 20260505004915 | 78 | 204 | 2.0 | 7.0 | 0.00 | 0.00 | 0.00 | 69 | 1010.6 |
| 20260505004415 | 78 | 281 | 2.0 | 7.0 | 0.00 | 0.00 | 0.00 | 68 | 1010.5 |
| 20260505003915 | 78 | 242 | 2.0 | 7.0 | 0.00 | 0.00 | 0.00 | 68 | 1010.4 |
| 20260505003646 | 78 | 223 | 2.0 | 7.0 | 0.00 | 0.00 | 0.00 | 67 | 1010.2 |
| 20260505002915 | 79 | 181 | 2.0 | 8.0 | 0.00 | 0.00 | 0.00 | 67 | 1010.1 |
| 20260505002647 | 79 | 285 | 2.0 | 8.0 | 0.00 | 0.00 | 0.00 | 67 | 1010.1 |
| 20260505001915 | 79 | 212 | 2.0 | 6.0 | 0.00 | 0.00 | 0.00 | 66 | 1010.2 |
| 20260505001415 | 79 | 159 | 2.0 | 8.0 | 0.00 | 0.00 | 0.00 | 66 | 1010.3 |
| 20260505000915 | 79 | 221 | 2.0 | 8.0 | 0.00 | 0.00 | 0.00 | 66 | 1010.3 |
| 20260505000418 | 80 | 161 | 2.0 | 9.0 | 0.00 | 0.00 | 0.00 | 66 | 1010.4 |
| 20260504235913 | 80 | 221 | 3.0 | 12.0 | 0.00 | 0.00 | 0.00 | 66 | 1010.4 |
| 20260504235413 | 80 | 287 | 4.0 | 12.0 | 0.00 | 0.00 | 0.00 | 65 | 1010.4 |
| 20260504234913 | 80 | 108 | 3.0 | 11.0 | 0.00 | 0.00 | 0.00 | 65 | 1010.4 |
| 20260504234643 | 80 | 131 | 3.0 | 7.0 | 0.00 | 0.00 | 0.00 | 66 | 1010.6 |
| 20260504233913 | 80 | 207 | 3.0 | 10.0 | 0.00 | 0.00 | 0.00 | 66 | 1010.6 |
| 20260504233411 | 80 | 158 | 3.0 | 10.0 | 0.00 | 0.00 | 0.00 | 65 | 1010.6 |
| 20260504232911 | 80 | 150 | 3.0 | 9.0 | 0.00 | 0.00 | 0.00 | 65 | 1010.7 |
| 20260504232409 | 80 | 198 | 3.0 | 10.0 | 0.00 | 0.00 | 0.00 | 66 | 1010.8 |
| 20260504232141 | 80 | 184 | 3.0 | 10.0 | 0.00 | 0.00 | 0.00 | 65 | 1010.8 |
| 20260504231643 | 79 | 152 | 3.0 | 10.0 | 0.00 | 0.00 | 0.00 | 66 | 1010.9 |
| 20260504230909 | 79 | 191 | 3.0 | 10.0 | 0.00 | 0.00 | 0.00 | 66 | 1011.0 |
| 20260504230409 | 79 | 163 | 3.0 | 9.0 | 0.00 | 0.00 | 0.00 | 66 | 1011.1 |
| 20260504225908 | 80 | 167 | 4.0 | 10.0 | 0.00 | 0.00 | 0.00 | 66 | 1011.1 |
| 20260504225409 | 80 | 173 | 4.0 | 10.0 | 0.00 | 0.00 | 0.00 | 65 | 1011.2 |
| 20260504224909 | 80 | 170 | 3.0 | 10.0 | 0.00 | 0.00 | 0.00 | 65 | 1011.2 |
| 20260504224409 | 80 | 211 | 2.0 | 8.0 | 0.00 | 0.00 | 0.00 | 65 | 1011.3 |
| 20260504223909 | 80 | 283 | 3.0 | 10.0 | 0.00 | 0.00 | 0.00 | 65 | 1011.5 |
| 20260504223639 | 80 | 192 | 3.0 | 10.0 | 0.00 | 0.00 | 0.00 | 65 | 1011.5 |
| 20260504222909 | 80 | 130 | 3.0 | 8.0 | 0.00 | 0.00 | 0.00 | 65 | 1011.6 |
| 20260504222409 | 79 | 180 | 3.0 | 11.0 | 0.00 | 0.00 | 0.00 | 66 | 1011.5 |
| 20260504221914 | 79 | 131 | 4.0 | 11.0 | 0.00 | 0.00 | 0.00 | 65 | 1011.5 |
| 20260504221409 | 80 | 163 | 4.0 | 11.0 | 0.00 | 0.00 | 0.00 | 64 | 1011.5 |
| 20260504220908 | 80 | 266 | 2.0 | 8.0 | 0.00 | 0.00 | 0.00 | 65 | 1011.5 |
| 20260504220408 | 80 | 195 | 2.0 | 8.0 | 0.00 | 0.00 | 0.00 | 64 | 1011.5 |
| 20260504215905 | 80 | 181 | 3.0 | 10.0 | 0.00 | 0.00 | 0.00 | 65 | 1011.6 |
| 20260504215359 | 80 | 229 | 4.0 | 10.0 | 0.00 | 0.00 | 0.00 | 65 | 1011.5 |
| 20260504214854 | 80 | 157 | 3.0 | 9.0 | 0.00 | 0.00 | 0.00 | 66 | 1011.6 |
| 20260504214624 | 79 | 179 | 3.0 | 9.0 | 0.00 | 0.00 | 0.00 | 66 | 1011.6 |
| 20260504213852 | 79 | 121 | 2.0 | 8.0 | 0.00 | 0.00 | 0.00 | 66 | 1011.7 |
| 20260504213350 | 79 | 175 | 2.0 | 10.0 | 0.00 | 0.00 | 0.00 | 67 | 1011.8 |
| 20260504212851 | 79 | 128 | 4.0 | 12.0 | 0.00 | 0.00 | 0.00 | 67 | 1011.8 |
| 20260504212351 | 79 | 169 | 5.0 | 12.0 | 0.00 | 0.00 | 0.00 | 67 | 1011.9 |
| 20260504211849 | 79 | 136 | 4.0 | 11.0 | 0.00 | 0.00 | 0.00 | 67 | 1012.0 |
| 20260504211349 | 78 | 155 | 3.0 | 12.0 | 0.00 | 0.00 | 0.00 | 67 | 1012.1 |
| 20260504210849 | 78 | 190 | 3.0 | 12.0 | 0.00 | 0.00 | 0.00 | 67 | 1012.4 |
| 20260504210349 | 79 | 198 | 3.0 | 8.0 | 0.00 | 0.00 | 0.00 | 67 | 1012.4 |
| 20260504205848 | 79 | 254 | 3.0 | 10.0 | 0.00 | 0.00 | 0.00 | 67 | 1012.4 |
| 20260504205346 | 78 | 172 | 3.0 | 13.0 | 0.00 | 0.00 | 0.00 | 67 | 1012.7 |
| 20260504204846 | 78 | 248 | 4.0 | 13.0 | 0.00 | 0.00 | 0.00 | 67 | 1012.8 |
| 20260504204346 | 78 | 232 | 3.0 | 11.0 | 0.00 | 0.00 | 0.00 | 67 | 1012.7 |
| 20260504203847 | 79 | 235 | 3.0 | 8.0 | 0.00 | 0.00 | 0.00 | 67 | 1012.8 |
| 20260504203349 | 79 | 209 | 3.0 | 7.0 | 0.00 | 0.00 | 0.00 | 67 | 1012.9 |
| 20260504202845 | 79 | 252 | 3.0 | 8.0 | 0.00 | 0.00 | 0.00 | 67 | 1013.0 |
| 20260504202345 | 79 | 269 | 3.0 | 10.0 | 0.00 | 0.00 | 0.00 | 67 | 1013.1 |
| 20260504201844 | 79 | 197 | 3.0 | 10.0 | 0.00 | 0.00 | 0.00 | 66 | 1013.1 |
| 20260504201338 | 79 | 204 | 3.0 | 9.0 | 0.00 | 0.00 | 0.00 | 67 | 1013.2 |